Regional Weather Roundup
Issued by NWS Huntsville, AL

Home | Current Version | Previous Version | Text Only | Print | Product List | Glossary On
Versions: 1 2 3 4 5 6 7 8 9 10 11 12 13 14 15 16 17 18 19 20 21 22 23 24 25 26 27 28 29 30 31 32 33 34 35 36 37 38 39 40 41 42 43 44 45 46 47 48 49 50
460
ASUS44 KHUN 251910
RWRHUN

WEATHER ROUNDUP FOR THE TENNESSEE VALLEY
NATIONAL WEATHER SERVICE HUNTSVILLE AL
200 PM CDT MON SEP 25 2017

ALZ001>004-252000-
NORTHWEST ALABAMA

CITY           SKY/WX    TMP DP  RH WIND       PRES   REMARKS
COURTLAND HCN    N/A     82 N/A N/A NE3         N/A
RUSSELLVILLE     N/A     82 N/A N/A MISG        N/A
SHOALS AIRPORT CLOUDY    88  65  46 VRB5      29.99F HX  90
$$

ALZ005>007-016-252000-
NORTH CENTRAL ALABAMA

CITY           SKY/WX    TMP DP  RH WIND       PRES   REMARKS
CULLMAN AG STN   N/A     82 N/A N/A E6          N/A
DECATUR AP     MOSUNNY   86  66  51 E8        29.99F
HUNTSVILLE AP  MOSUNNY   86  67  52 E8        29.98F
MERIDIANVILLE  MOSUNNY   82  63  51 CALM      30.00F
REDSTONE ARSN  MOSUNNY   86  66  51 E9        29.97F
VINEMONT AP    FAIR      82  62  50 E3        30.02F
$$

ALZ008>010-252000-
NORTHEAST ALABAMA

CITY           SKY/WX    TMP DP  RH WIND       PRES   REMARKS
ALBERTVILLE    PTSUNNY   84  70  61 E6        29.99F
FORT PAYNE     MOSUNNY   82  59  44 S6        30.00F
SCOTTSBORO HCN   N/A     81 N/A N/A MISG        N/A
VALLEY HEAD      N/A     81 N/A N/A MISG        N/A
$$

TNZ076-096-097-252000-
SOUTHEASTERN MIDDLE TENNESSEE

CITY           SKY/WX    TMP DP  RH WIND       PRES   REMARKS
TULLAHOMA      MOSUNNY   82  61  47 SE5       30.02F
WINCHESTER     PTSUNNY   82  66  57 N5        30.01F
$$

...SURROUNDING SITES...

CITY           SKY/WX    TMP DP  RH WIND       PRES   REMARKS
ATLANTA        MOSUNNY   84  58  40 NE6       29.99F
ANNISTON       PTSUNNY   85  66  53 VRB5      29.98F
BIRMINGHAM     PTSUNNY   85  64  49 NE9       29.99F
CHATTANOOGA    MOSUNNY   86  58  38 S6        30.00F
DALTON         SUNNY     84  61  45 CALM      30.01F
GADSDEN        SUNNY     86  67  52 VRB3      29.98F
GOLDEN TRNGL   MOSUNNY   86  66  51 E12       29.95F
HALEYVILLE     PTSUNNY   85  67  54 VRB5      30.01F
JACKSON TN     PTSUNNY   86  66  51 VRB6      29.98F
MEMPHIS        MOSUNNY   86  64  47 E9        29.96F
NASHVILLE      MOSUNNY   89  64  43 E8        30.00F HX  90
ROME           PTSUNNY   88  64  44 CALM      29.99F
SAVANNAH       SUNNY     88  64  45 VRB3      29.96F
SELMER         SUNNY     86  66  51 VRB3      29.97F
TUPELO         PTSUNNY   86  62  44 NE6       29.96F
TUSCALOOSA     CLOUDY    85  68  56 E3        29.95F
$$

...GULF COAST WEATHER...

CITY           SKY/WX    TMP DP  RH WIND       PRES   REMARKS
GULFPORT       MOSUNNY   85  73  67 SE12      29.88F HX  91
PASCAGOULA     CLOUDY    80  73  79 N6        29.88F
MOBILE         PTSUNNY   84  73  69 NE7       29.91F HX  90
GULF SHORES    MOCLDY    83  73  72 SE12G25   29.90F
DESTIN         MOSUNNY   86  70  58 NE7       29.91F HX  90
PANAMA CITY    PTSUNNY   82  75  78 W5        29.89F
APPALACHICOLA  SUNNY     84  75  74 E10       29.90F HX  92
$$





USA.gov is the U.S. government's official web portal to all federal, state and local government web resources and services.